[[{"header":{"parameterUnit":"m.s-1","parameterCategory":2,"la1":30.2992,"la2":30.254,"lo1":-89.0895,"lo2":-89.0443,"dy":0.0025,"dx":0.0025,"nx":19,"ny":19,"refTime":"2026-03-17T21:00:00:Z","depth":"0","parameterNumber":2,"parameterNumberName":"U-component_of_CURRENTS"},"data":[0,0,0,0.1546,0.1546,0.1555,0.1555,0.1587,0.1587,0,0,0,0,0,0,0,0,0,0,0,0.1531,0.1531,0.1546,0.1546,0.1555,0.1555,0.1587,0.1587,0,0,0,0,0,0,0,0,0,0,0,0.1531,0.1531,0.1531,0.1547,0.1555,0.1555,0.1587,0.1572,0,0,0,0,0,0,0,0,0,0,0.156,0.1545,0.1531,0.1531,0.1547,0.1555,0.1555,0.1571,0.1573,0.1594,0,0.1595,0,0.1605,0.1591,0.1592,0,0,0,0.1533,0.1543,0.1553,0.1531,0.1547,0.1555,0.1547,0.1571,0.1574,0.1597,0.1596,0.1597,0.1605,0.1592,0.1592,0.1666,0.1667,0,0,0.1532,0.1526,0.1552,0.1555,0.1551,0.1547,0.1548,0.1573,0.1572,0.1596,0.1598,0.1606,0.1592,0.1593,0.1666,0.1667,0,0,0,0.154,0.1525,0.1534,0.1553,0.156,0.1548,0.1548,0.157,0.1575,0.1599,0.1606,0.1592,0.1593,0.1666,0.1666,0.1665,0,0,0,0.1539,0.1531,0.1534,0.1529,0.156,0.1563,0.1545,0.1573,0.1577,0.1606,0.1592,0.1594,0.1665,0.1666,0.1664,0.1644,0,0,0,0.153,0.1531,0.1533,0.1529,0.1541,0.1563,0.1568,0.1573,0.1582,0.1592,0.1594,0.1665,0.1666,0.1663,0.1643,0.1651,0,0,0,0.1521,0.152,0.1533,0.1538,0.1541,0.1563,0.1568,0.1576,0.1582,0.1593,0.1665,0.1666,0.1663,0.1643,0.1651,0.1607,0.1605,0,0,0.1514,0.1519,0.1523,0.1536,0.1557,0.1561,0.1587,0.1592,0.1607,0.1655,0.1657,0.1664,0.1643,0.1651,0.1659,0.1655,0,0,0,0.1518,0.152,0.1528,0.1545,0.1567,0.1583,0.16,0.1618,0.1649,0.1619,0.1683,0.167,0.1675,0.1648,0.1646,0.1576,0.167,0.167,0.167,0.1508,0.1523,0.153,0.1551,0.1568,0.1604,0.1616,0.1649,0.1668,0.1687,0.1684,0.1706,0.1679,0.1677,0.1605,0.1711,0.1711,0.1711,0.1711,0.1503,0.1506,0.1527,0.1535,0.1567,0.1592,0.1643,0.1659,0.17,0.171,0.1715,0.1666,0.1673,0.1599,0.1712,0.1711,0.1711,0.1711,0.1711,0.1499,0.1497,0.1504,0.1517,0.1539,0.1577,0.1599,0.1647,0.1685,0.1691,0.1672,0.1672,0.1592,0.1703,0.1703,0.1703,0.1703,0.1703,0.1703,0.1486,0.149,0.1476,0.1497,0.1496,0.1524,0.1576,0.1596,0.1632,0.1657,0.1657,0.159,0.1703,0.1687,0.1702,0.1702,0.1702,0.1702,0.1702,0.1453,0.1461,0.1428,0.1421,0.1423,0.1418,0.1494,0.1531,0.1568,0.1579,0.1532,0.1645,0.1637,0.1639,0.1622,0.162,0.162,0.162,0.162,0.1423,0.1431,0.1354,0.1319,0.1319,0.1353,0.1335,0.1385,0.1434,0.1425,0.146,0.1443,0.1449,0.143,0.1437,0.1416,0.1361,0.136,0.136,0.1378,0.1362,0.1282,0.1256,0.125,0.1259,0.1221,0.1221,0.1283,0.1344,0.137,0.1381,0.1353,0.1369,0.1337,0.1352,0.1318,0,0]},{"header":{"parameterUnit":"m.s-1","parameterCategory":2,"la1":30.2992,"la2":30.254,"lo1":-89.0895,"lo2":-89.0443,"dy":0.0025,"dx":0.0025,"nx":19,"ny":19,"refTime":"2026-03-17T21:00:00:Z","depth":"0","parameterNumber":3,"parameterNumberName":"V-component_of_CURRENTS"},"data":[0,0,0,-0.0328,-0.0329,-0.0385,-0.0385,-0.0488,-0.0489,0,0,0,0,0,0,0,0,0,0,0,-0.0302,-0.0302,-0.0328,-0.0329,-0.0385,-0.0385,-0.0488,-0.0489,0,0,0,0,0,0,0,0,0,0,0,-0.0302,-0.0302,-0.0302,-0.0329,-0.0385,-0.0385,-0.0488,-0.0439,0,0,0,0,0,0,0,0,0,0,-0.0381,-0.0349,-0.0302,-0.0302,-0.033,-0.0385,-0.0385,-0.0436,-0.0442,-0.047,0,-0.0471,0,-0.0485,-0.0496,-0.0497,0,0,0,-0.0334,-0.0344,-0.0362,-0.0302,-0.033,-0.0385,-0.0361,-0.0439,-0.0446,-0.0478,-0.0472,-0.0476,-0.0487,-0.0497,-0.0498,-0.049,-0.049,0,0,-0.033,-0.0314,-0.0357,-0.0365,-0.0335,-0.0359,-0.0363,-0.0443,-0.0445,-0.0473,-0.0479,-0.0488,-0.0498,-0.0499,-0.0491,-0.049,0,0,0,-0.0319,-0.0311,-0.0327,-0.0361,-0.037,-0.0361,-0.0365,-0.0441,-0.0447,-0.048,-0.049,-0.0498,-0.05,-0.0492,-0.0491,-0.0399,0,0,0,-0.0317,-0.0304,-0.0325,-0.0316,-0.0368,-0.0402,-0.0361,-0.0441,-0.0451,-0.0489,-0.0499,-0.0501,-0.0493,-0.0492,-0.0404,-0.0355,0,0,0,-0.0301,-0.0303,-0.0307,-0.0315,-0.0338,-0.0401,-0.0411,-0.0443,-0.0457,-0.0497,-0.0501,-0.0494,-0.0492,-0.0408,-0.0362,-0.0313,0,0,0,-0.0286,-0.0262,-0.0306,-0.0285,-0.0338,-0.0336,-0.041,-0.0421,-0.0445,-0.0499,-0.0493,-0.0491,-0.0409,-0.0367,-0.0318,-0.0278,-0.0254,0,0,-0.0242,-0.0256,-0.0244,-0.0284,-0.0263,-0.0329,-0.0299,-0.0368,-0.0423,-0.0473,-0.0473,-0.0402,-0.0363,-0.0314,-0.0156,-0.0137,0,0,0,-0.022,-0.021,-0.0212,-0.0216,-0.0235,-0.023,-0.0296,-0.0324,-0.0354,-0.0429,-0.0385,-0.0362,-0.0335,-0.032,-0.0303,-0.0359,-0.0481,-0.0481,-0.0482,-0.0153,-0.0163,-0.0132,-0.0139,-0.0138,-0.0166,-0.0163,-0.0208,-0.0286,-0.0272,-0.0275,-0.0157,-0.0137,-0.0125,-0.0182,-0.0266,-0.0266,-0.0265,-0.0265,-0.0085,-0.0064,-0.0071,-0.0041,-0.0043,-0.0027,-0.0052,-0.0087,-0.0094,-0.0172,-0.015,-0.0208,-0.0102,-0.0169,-0.0259,-0.026,-0.0261,-0.0261,-0.0262,-0.005,-0.0032,-0.0018,0.0029,0.007,0.0062,0.0108,0.0066,0.0002,0.0028,0.0013,0.0011,-0.0061,0.0025,0.0026,0.0026,0.0027,0.0027,0.0027,-0.0013,0.0008,0.0059,0.0103,0.0145,0.0195,0.0199,0.0204,0.018,0.0131,0.013,-0.0011,-0.0068,-0.0095,0.0035,0.0033,0.0032,0.0032,0.0031,0.0048,0.0052,0.0135,0.0184,0.0283,0.0366,0.0359,0.0378,0.036,0.0365,0.0182,0.0179,0.0151,0.0137,0.0116,0.0292,0.0292,0.0292,0.0292,0.0091,0.0095,0.0213,0.0301,0.0397,0.0451,0.0544,0.0529,0.0404,0.0326,0.0258,0.0192,0.0184,0.0152,0.0137,0.0113,0.0285,0.0285,0.0284,0.0146,0.0173,0.0263,0.0336,0.0448,0.0544,0.0633,0.0631,0.0425,0.0275,0.0178,0.0179,0.0067,0.0059,-0.0011,-0.0026,-0.0074,0,0]}],[{"header":{"parameterUnit":"m.s-1","parameterCategory":2,"la1":30.2992,"la2":30.254,"lo1":-89.0895,"lo2":-89.0443,"dy":0.0025,"dx":0.0025,"nx":19,"ny":19,"refTime":"2026-03-17T21:00:00:Z","depth":"2","parameterNumber":2,"parameterNumberName":"U-component_of_CURRENTS"},"data":[0,0,0,0.1388,0.1389,0.1421,0.1421,0.1471,0.1471,0,0,0,0,0,0,0,0,0,0,0,0.1384,0.1385,0.1388,0.1389,0.1421,0.1421,0.1471,0.1471,0,0,0,0,0,0,0,0,0,0,0,0.1384,0.1385,0.1386,0.1389,0.1421,0.1421,0.147,0.1441,0,0,0,0,0,0,0,0,0,0,0.1408,0.1383,0.1384,0.1386,0.139,0.1421,0.1421,0.1439,0.1443,0.1463,0,0.1486,0,0.1484,0.1476,0.1476,0,0,0,0.1376,0.138,0.1416,0.1386,0.139,0.1421,0.1403,0.1441,0.1445,0.1468,0.1486,0.1488,0.1485,0.1477,0.1477,0.1558,0.1559,0,0,0.1374,0.136,0.1413,0.1419,0.1422,0.1402,0.1404,0.1443,0.1442,0.1486,0.1489,0.1486,0.1477,0.1478,0.1558,0.1558,0,0,0,0.1378,0.1358,0.1392,0.1417,0.1425,0.1403,0.1405,0.1439,0.1459,0.1489,0.1486,0.1478,0.1478,0.1558,0.1558,0.1547,0,0,0,0.1376,0.1362,0.1392,0.1379,0.1424,0.1425,0.14,0.1457,0.1461,0.1486,0.1478,0.1479,0.1557,0.1558,0.1546,0.1539,0,0,0,0.1378,0.1361,0.1378,0.1379,0.1401,0.1424,0.1444,0.1457,0.146,0.1476,0.1479,0.1557,0.1558,0.1546,0.1539,0.1539,0,0,0,0.1343,0.136,0.1378,0.1392,0.1401,0.1433,0.1444,0.1454,0.1466,0.1478,0.1557,0.1558,0.1546,0.1538,0.1538,0.1482,0.1479,0,0,0.1342,0.1359,0.1367,0.1385,0.1405,0.1427,0.1451,0.147,0.1489,0.1542,0.1543,0.1547,0.1539,0.1538,0.1531,0.1526,0,0,0,0.1352,0.1364,0.1369,0.1391,0.1419,0.1441,0.1471,0.1489,0.1524,0.1505,0.1567,0.1563,0.1562,0.1529,0.1526,0.1562,0.1562,0.1562,0.1562,0.1347,0.1364,0.137,0.1399,0.1418,0.146,0.148,0.1519,0.154,0.1556,0.1569,0.1582,0.1547,0.1544,0.1588,0.1588,0.1588,0.1588,0.1588,0.135,0.1356,0.1372,0.1383,0.142,0.1454,0.1505,0.1526,0.1572,0.1581,0.1581,0.1538,0.1539,0.1587,0.1587,0.1587,0.1588,0.1588,0.1588,0.1349,0.1349,0.1358,0.1372,0.1399,0.1444,0.1469,0.1521,0.1557,0.1569,0.1538,0.1537,0.1561,0.1571,0.1571,0.1571,0.1571,0.1571,0.1571,0.134,0.1343,0.1334,0.1355,0.1359,0.1392,0.1451,0.1473,0.1503,0.1525,0.1525,0.1576,0.1577,0.1561,0.1571,0.1571,0.1571,0.1571,0.1571,0.131,0.1318,0.1293,0.129,0.1299,0.1291,0.1365,0.1395,0.1432,0.1434,0.1499,0.1501,0.1498,0.1501,0.1484,0.1473,0.1473,0.1473,0.1473,0.1282,0.129,0.1228,0.1199,0.1201,0.123,0.1203,0.1226,0.1306,0.1322,0.1328,0.1311,0.1318,0.1305,0.1312,0.1291,0.123,0.123,0.1229,0.1236,0.1229,0.1162,0.1145,0.1139,0.1142,0.1087,0.1021,0.1068,0.1218,0.1271,0.146,0.1451,0.1456,0.1451,0.1456,0.1429,0,0]},{"header":{"parameterUnit":"m.s-1","parameterCategory":2,"la1":30.2992,"la2":30.254,"lo1":-89.0895,"lo2":-89.0443,"dy":0.0025,"dx":0.0025,"nx":19,"ny":19,"refTime":"2026-03-17T21:00:00:Z","depth":"2","parameterNumber":3,"parameterNumberName":"V-component_of_CURRENTS"},"data":[0,0,0,0.0095,0.0093,-0.0002,-0.0002,-0.0071,-0.0072,0,0,0,0,0,0,0,0,0,0,0,0.0111,0.011,0.0095,0.0093,-0.0002,-0.0002,-0.0071,-0.0072,0,0,0,0,0,0,0,0,0,0,0,0.0111,0.011,0.0109,0.0093,-0.0002,-0.0002,-0.0071,-0.0015,0,0,0,0,0,0,0,0,0,0,0.007,0.0113,0.011,0.0109,0.0092,-0.0002,-0.0002,-0.0013,-0.0018,-0.0011,0,-0.0038,0,-0.0044,-0.0074,-0.0075,0,0,0,0.0085,0.0118,0.0063,0.0109,0.0092,-0.0001,0.0039,-0.0016,-0.0022,-0.0018,-0.0039,-0.0041,-0.0045,-0.0075,-0.0075,-0.0084,-0.0084,0,0,0.009,0.0125,0.0067,0.0059,0.0052,0.0042,0.0036,-0.0021,-0.0014,-0.0039,-0.0043,-0.0047,-0.0075,-0.0075,-0.0084,-0.0084,0,0,0,0.0111,0.0129,0.0075,0.0062,0.0047,0.0039,0.0032,-0.0012,-0.0039,-0.0044,-0.0047,-0.0075,-0.0076,-0.0084,-0.0084,0.0004,0,0,0,0.0113,0.0141,0.0077,0.0102,0.0047,0.0019,0.0043,-0.0036,-0.0042,-0.0047,-0.0075,-0.0076,-0.0084,-0.0084,0.0002,0.0032,0,0,0,0.0118,0.0144,0.012,0.0103,0.0064,0.0019,-0.0011,-0.0038,-0.0043,-0.0075,-0.0076,-0.0085,-0.0084,-0.0001,0.0028,0.006,0,0,0,0.0173,0.0158,0.0121,0.0121,0.0065,0.0044,-0.001,-0.0019,-0.0039,-0.0075,-0.0084,-0.0084,-0.0002,0.0025,0.0057,0.0088,0.0103,0,0,0.0186,0.0161,0.0163,0.0128,0.0133,0.0057,0.0072,0.0018,-0.0032,-0.0064,-0.0065,0.0002,0.0027,0.006,0.0115,0.013,0,0,0,0.0191,0.0183,0.0186,0.0174,0.0147,0.0134,0.0072,0.0053,0.0015,-0.0043,-0.0013,-0.0001,0.0018,0.003,0.0041,-0.0082,-0.0082,-0.0082,-0.0082,0.0218,0.0211,0.0234,0.0218,0.0214,0.0181,0.0169,0.0119,0.0069,0.0068,0.0061,0.0129,0.0144,0.0152,0.0051,0.0052,0.0052,0.0052,0.0053,0.0245,0.0261,0.0267,0.0284,0.0273,0.027,0.0244,0.021,0.0188,0.0134,0.0147,0.0109,0.0171,0.0059,0.0058,0.0057,0.0056,0.0056,0.0055,0.0265,0.0279,0.0288,0.0323,0.0346,0.0329,0.036,0.0316,0.0261,0.027,0.0254,0.0252,0.0185,0.0271,0.0271,0.0272,0.0272,0.0272,0.0272,0.0286,0.0304,0.0337,0.0372,0.04,0.0432,0.0425,0.0421,0.0388,0.0342,0.0341,0.0202,0.0195,0.0196,0.0277,0.0276,0.0275,0.0275,0.0275,0.0325,0.0329,0.0385,0.0418,0.0495,0.0563,0.0553,0.055,0.0524,0.0516,0.038,0.0376,0.0345,0.0335,0.0338,0.045,0.045,0.045,0.045,0.0349,0.0354,0.0431,0.0498,0.0578,0.0627,0.0687,0.0654,0.0569,0.0507,0.0504,0.0469,0.0461,0.0433,0.042,0.0422,0.0557,0.0558,0.0558,0.0382,0.0399,0.0456,0.0517,0.0614,0.0696,0.075,0.0699,0.0577,0.056,0.0504,0.0461,0.04,0.0391,0.0335,0.032,0.0318,0,0]}],[{"header":{"parameterUnit":"m.s-1","parameterCategory":2,"la1":30.2992,"la2":30.254,"lo1":-89.0895,"lo2":-89.0443,"dy":0.0025,"dx":0.0025,"nx":19,"ny":19,"refTime":"2026-03-17T21:00:00:Z","depth":"4","parameterNumber":2,"parameterNumberName":"U-component_of_CURRENTS"},"data":[0,0,0,0.053,0.0531,0.0606,0.0606,0.0708,0.0708,0,0,0,0,0,0,0,0,0,0,0,0.052,0.052,0.053,0.0531,0.0606,0.0606,0.0708,0.0708,0,0,0,0,0,0,0,0,0,0,0,0.0519,0.052,0.0521,0.0532,0.0606,0.0606,0.0707,0.0655,0,0,0,0,0,0,0,0,0,0,0.0583,0.0579,0.052,0.0521,0.0532,0.0606,0.0607,0.0652,0.0658,0.0669,0,0.0681,0,0.0682,0.0713,0.0714,0,0,0,0.0551,0.0574,0.0574,0.0521,0.0532,0.0605,0.0578,0.0655,0.0662,0.0677,0.0682,0.0685,0.0683,0.0714,0.0714,0.0798,0.0799,0,0,0.0547,0.0554,0.057,0.0578,0.0551,0.0575,0.058,0.0659,0.0678,0.0682,0.0687,0.0685,0.0714,0.0715,0.0798,0.0798,0,0,0,0.0522,0.0551,0.055,0.0575,0.0579,0.0577,0.0582,0.0675,0.0669,0.0688,0.0686,0.0715,0.0716,0.0798,0.0798,0.0867,0,0,0,0.052,0.0534,0.0548,0.0556,0.0578,0.063,0.0596,0.0664,0.0673,0.0686,0.0715,0.0717,0.0797,0.0798,0.0865,0.0866,0,0,0,0.0516,0.0534,0.0538,0.0556,0.0575,0.0628,0.0629,0.0667,0.067,0.0714,0.0717,0.0797,0.0798,0.0862,0.0863,0.091,0,0,0,0.0527,0.0546,0.0539,0.0568,0.0574,0.0623,0.0628,0.0692,0.0735,0.0715,0.0797,0.0798,0.0861,0.0861,0.0908,0.0764,0,0,0,0.0552,0.055,0.0565,0.0559,0.0608,0.0614,0.0681,0.0744,0.0747,0.0774,0.0776,0.0865,0.0862,0.091,0.0814,0,0,0,0,0.0573,0.0583,0.0603,0.0625,0.0653,0.0703,0.0742,0.0771,0.0834,0.077,0.0863,0.0858,0.0886,0.0795,0.0802,0.0802,0.0802,0.0802,0.0802,0.0605,0.0611,0.0648,0.0668,0.0711,0.077,0.0817,0.0853,0.0866,0.0908,0.0914,0.0991,0.0898,0.0928,0.0928,0.0928,0.0929,0.0929,0.0929,0.0626,0.0637,0.067,0.0711,0.076,0.0819,0.0891,0.0921,0.0989,0.0975,0.1001,0.0873,0.0936,0.0934,0.0933,0.0933,0.0932,0.0932,0.0931,0.0626,0.0634,0.0666,0.0729,0.0803,0.0868,0.0939,0.0999,0.1034,0.1065,0.0986,0.1032,0.1027,0.1105,0.1106,0.1106,0.1106,0.1106,0.1106,0.0613,0.0644,0.0689,0.0758,0.081,0.0891,0.0989,0.102,0.1077,0.1026,0.1097,0.105,0.1044,0.1037,0.111,0.1109,0.1109,0.1108,0.1108,0.0615,0.0642,0.0701,0.075,0.084,0.0878,0.0983,0.0999,0.1035,0.1016,0.1004,0.1008,0.0965,0.0961,0.0949,0.1,0.0998,0.0997,0,0.062,0.0633,0.0706,0.0759,0.0802,0.0862,0.0862,0.0904,0.0937,0.0904,0.1042,0.1028,0.1029,0.098,0.0974,0.0959,0,0,0,0.0635,0.0653,0.0688,0.073,0.0764,0.0786,0.0852,0.0831,0.0932,0.0908,0.0957,0.0968,0.1053,0.1121,0.1065,0.1058,0.1043,0,0]},{"header":{"parameterUnit":"m.s-1","parameterCategory":2,"la1":30.2992,"la2":30.254,"lo1":-89.0895,"lo2":-89.0443,"dy":0.0025,"dx":0.0025,"nx":19,"ny":19,"refTime":"2026-03-17T21:00:00:Z","depth":"4","parameterNumber":3,"parameterNumberName":"V-component_of_CURRENTS"},"data":[0,0,0,0.0547,0.0548,0.0549,0.0549,0.0553,0.0553,0,0,0,0,0,0,0,0,0,0,0,0.0559,0.056,0.0547,0.0548,0.0549,0.0549,0.0553,0.0553,0,0,0,0,0,0,0,0,0,0,0,0.0559,0.056,0.0561,0.0548,0.0549,0.0549,0.0553,0.0547,0,0,0,0,0,0,0,0,0,0,0.0544,0.0542,0.0559,0.0561,0.0548,0.0549,0.0549,0.0547,0.0548,0.0558,0,0.0582,0,0.0571,0.0555,0.0555,0,0,0,0.0531,0.0542,0.0563,0.0561,0.0548,0.0549,0.0544,0.0547,0.0548,0.0559,0.0582,0.0582,0.0571,0.0555,0.0555,0.0547,0.0547,0,0,0.0531,0.0533,0.0562,0.0564,0.058,0.0544,0.0544,0.0547,0.055,0.0582,0.0582,0.0571,0.0555,0.0556,0.0548,0.0547,0,0,0,0.0542,0.0533,0.0553,0.0564,0.0566,0.0544,0.0545,0.0549,0.0563,0.0581,0.0571,0.0556,0.0556,0.0548,0.0547,0.0548,0,0,0,0.0541,0.0541,0.0554,0.0551,0.0567,0.0553,0.0546,0.0563,0.0563,0.0571,0.0556,0.0556,0.0548,0.0548,0.0549,0.0556,0,0,0,0.0553,0.0541,0.0556,0.0552,0.0561,0.0553,0.0564,0.0562,0.0557,0.0555,0.0556,0.0548,0.0548,0.0549,0.0557,0.054,0,0,0,0.0533,0.0542,0.0556,0.0562,0.0561,0.0558,0.0564,0.0551,0.0548,0.0556,0.0548,0.0547,0.055,0.0557,0.0541,0.0545,0,0,0,0.0525,0.0541,0.0543,0.0556,0.0559,0.0555,0.0539,0.054,0.054,0.0545,0.0545,0.0549,0.0557,0.054,0.0503,0,0,0,0,0.0526,0.0539,0.0541,0.0552,0.0554,0.0548,0.0542,0.0537,0.0528,0.0539,0.0534,0.0539,0.0529,0.0532,0.0544,0.0544,0.0544,0.0544,0.0544,0.0522,0.053,0.0537,0.0551,0.0549,0.0539,0.0528,0.052,0.0525,0.0513,0.0528,0.0503,0.0505,0.0512,0.0512,0.0512,0.0512,0.0512,0.0512,0.0521,0.0529,0.0544,0.0553,0.0558,0.0552,0.0531,0.0523,0.0505,0.051,0.05,0.0519,0.0511,0.0511,0.0511,0.0512,0.0512,0.0512,0.0512,0.0522,0.0524,0.0542,0.0559,0.057,0.0566,0.0562,0.054,0.0511,0.05,0.0493,0.0498,0.051,0.0491,0.0491,0.0491,0.0491,0.0491,0.0491,0.051,0.0525,0.0541,0.0565,0.0584,0.0597,0.058,0.0563,0.0526,0.0494,0.05,0.0496,0.0496,0.0508,0.049,0.049,0.0491,0.0491,0.0491,0.0491,0.0506,0.0527,0.055,0.0598,0.061,0.0607,0.056,0.0529,0.049,0.0482,0.0483,0.0483,0.0483,0.0495,0.0473,0.0473,0.0473,0,0.0476,0.0486,0.0513,0.0549,0.0588,0.0614,0.059,0.0568,0.051,0.0501,0.052,0.0513,0.0512,0.0515,0.0516,0.0531,0,0,0,0.0456,0.0472,0.0484,0.0536,0.0585,0.0584,0.0583,0.0558,0.0525,0.0496,0.0473,0.0473,0.0517,0.0488,0.0489,0.049,0.0509,0,0]}]]